Flag for Germany Weather past 2 weeks in Ilmenau, Thuringia, Germany

Now
59 °F

Fog.


Feels Like: 59 °F
Forecast: 52 / 75 °F
Wind: 2 mph from South

Location: Erfurt-Bindersleben

Current Time: Aug 29, 2015 at 1:12:02 AM

Latest Report: Aug 29, 2015 at 12:20 AM


Visibility: N/A

Pressure: 30.21 "Hg

Humidity: 94%

Dew point: 57 °F

Location of IlmenauLocation

Historic Weather in Ilmenau — Graph

°F

Ilmenau temperature yesterday

Maximum temperature yesterday: 66 °F (at 12:20 AM)
Minimum temperature yesterday: 55 °F (at 7:50 AM)
Average temperature yesterday: 62 °F

Past Weeks' High & Low Weather Summary

 TemperatureHumidityPressure
High84 °F (Aug 14, 2:20 PM)100% (Aug 16, 8:20 PM)30.30 "Hg (Aug 16, 8:20 PM)
Low48 °F (Aug 19, 6:50 AM)33% (Aug 21, 4:20 PM)29.71 "Hg (Aug 24, 1:50 PM)
Average64 °F73%29.98 "Hg
* Reported Aug 13 11:20 PM — Aug 28 11:50 PM, Ilmenau, Weather by CustomWeather, © 2015

Note: Actual official high and low records may vary slightly from our data, if they occured in-between our weather recording intervals... More about our weather records

Advertising

Ilmenau weather history for previous 24 hours

 ConditionsComfort  
Time TempWeatherWind HumidityBarometerVisibility
11:50 PM
Fri, Aug 28
59 °FFog.2 mph94%30.18 "HgN/A
11:20 PM59 °FPassing clouds.1 mph94%30.18 "HgN/A
10:50 PM59 °FClear.1 mph94%30.18 "Hg10 mi
10:20 PM61 °FClear.1 mph88%30.18 "Hg10 mi
9:50 PM61 °FPassing clouds.1 mph88%30.15 "HgN/A
9:20 PM63 °FPassing clouds.1 mph83%30.15 "HgN/A
8:50 PM63 °FScattered clouds.1 mph83%30.15 "HgN/A
8:20 PM64 °FScattered clouds.1 mph78%30.12 "HgN/A
7:50 PM64 °FPartly sunny.1 mph78%30.12 "HgN/A
7:20 PM64 °FPartly sunny.No wind78%30.12 "HgN/A
6:50 PM64 °FPartly sunny.1 mph83%30.12 "HgN/A
6:20 PM64 °FPartly sunny.1 mph78%30.12 "HgN/A
5:50 PM64 °FLight rain. Partly sunny.1 mph78%30.12 "HgN/A
5:20 PM64 °FLight rain. Partly sunny.2 mph78%30.12 "HgN/A
4:50 PM64 °FLight rain. Partly sunny.No wind78%30.12 "HgN/A
4:20 PM64 °FPartly sunny.1 mph83%30.09 "HgN/A
3:50 PM63 °FPartly sunny.2 mph83%30.09 "HgN/A
3:20 PM63 °FBroken clouds.2 mph83%30.09 "HgN/A
2:50 PM63 °FDrizzle. Partly sunny.2 mph83%30.09 "HgN/A
2:20 PM63 °FDrizzle. Broken clouds.3 mph83%30.09 "HgN/A
1:50 PM63 °FBroken clouds.3 mph83%30.09 "HgN/A
1:20 PM63 °FBroken clouds.2 mph77%30.07 "HgN/A
12:50 PM63 °FBroken clouds.3 mph83%30.07 "HgN/A
12:20 PM63 °FScattered clouds.2 mph77%30.07 "HgN/A
11:50 AM61 °FBroken clouds.5 mph88%30.07 "HgN/A
11:20 AM59 °FBroken clouds.3 mph88%30.07 "HgN/A
10:50 AM59 °FBroken clouds.3 mph88%30.07 "HgN/A
10:20 AM59 °FDrizzle. Broken clouds.3 mph88%30.07 "HgN/A
9:50 AM59 °FLight rain. Broken clouds.2 mph88%30.04 "HgN/A
9:20 AM57 °FPartly sunny.3 mph94%30.04 "HgN/A
8:50 AM57 °FDrizzle. Partly sunny.5 mph94%30.01 "HgN/A
8:20 AM57 °FDrizzle. Partly sunny.3 mph88%30.01 "HgN/A
7:50 AM55 °FDrizzle. Partly sunny.6 mph94%30.01 "HgN/A
7:20 AM57 °FDrizzle. Fog.9 mph94%29.98 "Hg2 mi
6:50 AM57 °FPartly cloudy.8 mph94%29.98 "Hg5 mi
5:50 AM59 °FRain. Passing clouds.8 mph94%29.95 "HgN/A
5:20 AM61 °FRain. Passing clouds.7 mph88%29.92 "HgN/A
4:50 AM64 °FLight rain. Passing clouds.3 mph94%29.92 "HgN/A
4:20 AM64 °FRain. Passing clouds.8 mph94%29.92 "HgN/A
3:50 AM64 °FLight rain. Passing clouds.9 mph94%29.89 "HgN/A
3:20 AM64 °FLight rain. Passing clouds.8 mph94%29.92 "HgN/A
2:50 AM64 °FLight rain. Passing clouds.8 mph88%29.92 "HgN/A
2:20 AM64 °FLight rain. Passing clouds.8 mph88%29.89 "HgN/A
1:50 AM64 °FLight rain. Partly cloudy.7 mph88%29.89 "HgN/A
1:20 AM64 °FLight rain. Clear.6 mph88%29.89 "HgN/A
Weather by CustomWeather, © 2015

See weather overviewHow to use our weather pages